����������;��������(kWh)
2019-03-18 00:00;93,05
2019-03-18 00:15;92,85
2019-03-18 00:30;93,25
2019-03-18 00:45;94,4
2019-03-18 01:00;93,75
2019-03-18 01:15;91,2
2019-03-18 01:30;90,2
2019-03-18 01:45;91,85
2019-03-18 02:00;91,9
2019-03-18 02:15;89,55
2019-03-18 02:30;91,1
2019-03-18 02:45;88,95
2019-03-18 03:00;88,8
2019-03-18 03:15;89,45
2019-03-18 03:30;91
2019-03-18 03:45;91,3
2019-03-18 04:00;91,9
2019-03-18 04:15;90,85
2019-03-18 04:30;92,2
2019-03-18 04:45;87,3
2019-03-18 05:00;90,65
2019-03-18 05:15;88,65
2019-03-18 05:30;88,35
2019-03-18 05:45;89,1
2019-03-18 06:00;93,45
2019-03-18 06:15;90,25
2019-03-18 06:30;86,25
2019-03-18 06:45;83,4
2019-03-18 07:00;89,8
2019-03-18 07:15;95,1
2019-03-18 07:30;91,2
2019-03-18 07:45;100,85
2019-03-18 08:00;108,85
2019-03-18 08:15;144,5
2019-03-18 08:30;151,7
2019-03-18 08:45;163,9
2019-03-18 09:00;171,95
2019-03-18 09:15;164,95
2019-03-18 09:30;177,75
2019-03-18 09:45;178,15
2019-03-18 10:00;180,4
2019-03-18 10:15;193,75
2019-03-18 10:30;200,9
2019-03-18 10:45;202,15
2019-03-18 11:00;193,9
2019-03-18 11:15;194,8
2019-03-18 11:30;194,85
2019-03-18 11:45;194,3
2019-03-18 12:00;194,1
2019-03-18 12:15;198,5
2019-03-18 12:30;197,45
2019-03-18 12:45;193,3
2019-03-18 13:00;197,45
2019-03-18 13:15;197,2
2019-03-18 13:30;195,4
2019-03-18 13:45;199,1
2019-03-18 14:00;238,7
2019-03-18 14:15;213,45
2019-03-18 14:30;200,45
2019-03-18 14:45;200,05
2019-03-18 15:00;197,85
2019-03-18 15:15;189,5
2019-03-18 15:30;184,65
2019-03-18 15:45;178,9
2019-03-18 16:00;174,45
2019-03-18 16:15;166,6
2019-03-18 16:30;159
2019-03-18 16:45;158,8
2019-03-18 17:00;157,1
2019-03-18 17:15;154,95
2019-03-18 17:30;150,4
2019-03-18 17:45;151,75
2019-03-18 18:00;141,1
2019-03-18 18:15;144,35
2019-03-18 18:30;146,35
2019-03-18 18:45;142,4
2019-03-18 19:00;148,4
2019-03-18 19:15;148,9
2019-03-18 19:30;142,8
2019-03-18 19:45;147,1
2019-03-18 20:00;140,4
2019-03-18 20:15;134,5
2019-03-18 20:30;130,9
2019-03-18 20:45;135,45
2019-03-18 21:00;132,4
2019-03-18 21:15;126,75
2019-03-18 21:30;124,6
2019-03-18 21:45;119,6
2019-03-18 22:00;117,4
2019-03-18 22:15;118,8
2019-03-18 22:30;116,25
2019-03-18 22:45;111,7
2019-03-18 23:00;120,3
2019-03-18 23:15;113,1
2019-03-18 23:30;113,05
2019-03-18 23:45;111,75
2019-03-19 00:00;106,55
2019-03-19 00:15;105,6
2019-03-19 00:30;106,7
2019-03-19 00:45;106,7
2019-03-19 01:00;104,1
2019-03-19 01:15;103,5
2019-03-19 01:30;104,7
2019-03-19 01:45;104,6
2019-03-19 02:00;104,1
2019-03-19 02:15;104,2
2019-03-19 02:30;103,65
2019-03-19 02:45;102,6
2019-03-19 03:00;103,25
2019-03-19 03:15;104,05
2019-03-19 03:30;101,55
2019-03-19 03:45;102,95
2019-03-19 04:00;103,85
2019-03-19 04:15;101,7
2019-03-19 04:30;102,05
2019-03-19 04:45;101,95
2019-03-19 05:00;104,85
2019-03-19 05:15;102,75
2019-03-19 05:30;103,2
2019-03-19 05:45;100,9
2019-03-19 06:00;102,1
2019-03-19 06:15;100,25
2019-03-19 06:30;100,25
2019-03-19 06:45;97,7
2019-03-19 07:00;99,7
2019-03-19 07:15;102,9
2019-03-19 07:30;151,1
2019-03-19 07:45;116,5
2019-03-19 08:00;124,1
2019-03-19 08:15;135,65
2019-03-19 08:30;138,55
2019-03-19 08:45;147,7
2019-03-19 09:00;153,15
2019-03-19 09:15;158,05
2019-03-19 09:30;155,4
2019-03-19 09:45;164,35
2019-03-19 10:00;157,4
2019-03-19 10:15;185,05
2019-03-19 10:30;170,2
2019-03-19 10:45;178,65
2019-03-19 11:00;171,75
2019-03-19 11:15;175,85
2019-03-19 11:30;174,35
2019-03-19 11:45;187,35
2019-03-19 12:00;185,25
2019-03-19 12:15;186,55
2019-03-19 12:30;183,4
2019-03-19 12:45;190,15
2019-03-19 13:00;174,6
2019-03-19 13:15;180,7
2019-03-19 13:30;171,7
2019-03-19 13:45;177,8
2019-03-19 14:00;171
2019-03-19 14:15;184,1
2019-03-19 14:30;175,2
2019-03-19 14:45;184,6
2019-03-19 15:00;177,75
2019-03-19 15:15;174,9
2019-03-19 15:30;179,6
2019-03-19 15:45;166,2
2019-03-19 16:00;168
2019-03-19 16:15;156,85
2019-03-19 16:30;162,45
2019-03-19 16:45;158,05
2019-03-19 17:00;158,7
2019-03-19 17:15;157,1
2019-03-19 17:30;150
2019-03-19 17:45;157,9
2019-03-19 18:00;153,55
2019-03-19 18:15;148,55
2019-03-19 18:30;144,3
2019-03-19 18:45;144,8
2019-03-19 19:00;146,25
2019-03-19 19:15;145,65
2019-03-19 19:30;147,7
2019-03-19 19:45;144,75
2019-03-19 20:00;143,5
2019-03-19 20:15;132,05
2019-03-19 20:30;128,75
2019-03-19 20:45;126,55
2019-03-19 21:00;125,25
2019-03-19 21:15;124,3
2019-03-19 21:30;121,9
2019-03-19 21:45;117,55
2019-03-19 22:00;112,55
2019-03-19 22:15;107,4
2019-03-19 22:30;105,65
2019-03-19 22:45;106,6
2019-03-19 23:00;115,6
2019-03-19 23:15;112,65
2019-03-19 23:30;114,05
2019-03-19 23:45;112,7
2019-03-20 00:00;107,95
2019-03-20 00:15;108,55
2019-03-20 00:30;114
2019-03-20 00:45;110,25
2019-03-20 01:00;112,95
2019-03-20 01:15;112
2019-03-20 01:30;112,05
2019-03-20 01:45;112,65
2019-03-20 02:00;113,55
2019-03-20 02:15;113,65
2019-03-20 02:30;111,7
2019-03-20 02:45;110,8
2019-03-20 03:00;108,9
2019-03-20 03:15;104,8
2019-03-20 03:30;106,8
2019-03-20 03:45;105,6
2019-03-20 04:00;104,45
2019-03-20 04:15;101,35
2019-03-20 04:30;103,5
2019-03-20 04:45;104,85
2019-03-20 05:00;106,95
2019-03-20 05:15;108,7
2019-03-20 05:30;106,05
2019-03-20 05:45;104,05
2019-03-20 06:00;102,75
2019-03-20 06:15;102
2019-03-20 06:30;98,9
2019-03-20 06:45;95,8
2019-03-20 07:00;102,05
2019-03-20 07:15;101,15
2019-03-20 07:30;157,9
2019-03-20 07:45;116,95
2019-03-20 08:00;130,1
2019-03-20 08:15;126,4
2019-03-20 08:30;136,1
2019-03-20 08:45;134,1
2019-03-20 09:00;147,35
2019-03-20 09:15;146
2019-03-20 09:30;158,6
2019-03-20 09:45;156,85
2019-03-20 10:00;172,2
2019-03-20 10:15;174,8
2019-03-20 10:30;183
2019-03-20 10:45;182,5
2019-03-20 11:00;202,6
2019-03-20 11:15;201,3
2019-03-20 11:30;210,55
2019-03-20 11:45;207,75
2019-03-20 12:00;203,85
2019-03-20 12:15;203,6
2019-03-20 12:30;201,2
2019-03-20 12:45;211,5
2019-03-20 13:00;202,85
2019-03-20 13:15;204,1
2019-03-20 13:30;190,95
2019-03-20 13:45;192,95
2019-03-20 14:00;176,9
2019-03-20 14:15;190,35
2019-03-20 14:30;188,35
2019-03-20 14:45;195,15
2019-03-20 15:00;183,45
2019-03-20 15:15;178,8
2019-03-20 15:30;164,5
2019-03-20 15:45;159,05
2019-03-20 16:00;167
2019-03-20 16:15;161,3
2019-03-20 16:30;164,35
2019-03-20 16:45;154,35
2019-03-20 17:00;157,95
2019-03-20 17:15;146,5
2019-03-20 17:30;159,85
2019-03-20 17:45;149,45
2019-03-20 18:00;151,6
2019-03-20 18:15;150,4
2019-03-20 18:30;145,5
2019-03-20 18:45;143,65
2019-03-20 19:00;143,15
2019-03-20 19:15;146,75
2019-03-20 19:30;138
2019-03-20 19:45;137,9
2019-03-20 20:00;139,4
2019-03-20 20:15;134,15
2019-03-20 20:30;131,4
2019-03-20 20:45;131,3
2019-03-20 21:00;137,5
2019-03-20 21:15;137,2
2019-03-20 21:30;136,2
2019-03-20 21:45;125,5
2019-03-20 22:00;113,9
2019-03-20 22:15;108,45
2019-03-20 22:30;108,55
2019-03-20 22:45;109,9
2019-03-20 23:00;117,05
2019-03-20 23:15;111,25
2019-03-20 23:30;113,1
2019-03-20 23:45;112,7
2019-03-21 00:00;105,6
2019-03-21 00:15;104,65
2019-03-21 00:30;106,3
2019-03-21 00:45;104,45
2019-03-21 01:00;102,3
2019-03-21 01:15;106
2019-03-21 01:30;103,15
2019-03-21 01:45;102,4
2019-03-21 02:00;103,5
2019-03-21 02:15;101,65
2019-03-21 02:30;101,15
2019-03-21 02:45;101,15
2019-03-21 03:00;102,25
2019-03-21 03:15;104,45
2019-03-21 03:30;102,95
2019-03-21 03:45;103,9
2019-03-21 04:00;102,75
2019-03-21 04:15;99,8
2019-03-21 04:30;100,4
2019-03-21 04:45;103
2019-03-21 05:00;107,85
2019-03-21 05:15;100,75
2019-03-21 05:30;100
2019-03-21 05:45;99,45
2019-03-21 06:00;100,65
2019-03-21 06:15;103,7
2019-03-21 06:30;99,3
2019-03-21 06:45;98,45
2019-03-21 07:00;100,55
2019-03-21 07:15;100,3
2019-03-21 07:30;154,8
2019-03-21 07:45;112,4
2019-03-21 08:00;127,9
2019-03-21 08:15;126,9
2019-03-21 08:30;156,1
2019-03-21 08:45;153,35
2019-03-21 09:00;177,9
2019-03-21 09:15;162,85
2019-03-21 09:30;176,75
2019-03-21 09:45;177,1
2019-03-21 10:00;187,25
2019-03-21 10:15;185,85
2019-03-21 10:30;199,1
2019-03-21 10:45;194,45
2019-03-21 11:00;191,55
2019-03-21 11:15;205,6
2019-03-21 11:30;208,25
2019-03-21 11:45;215,9
2019-03-21 12:00;205,9
2019-03-21 12:15;212,1
2019-03-21 12:30;213,35
2019-03-21 12:45;211,15
2019-03-21 13:00;223,9
2019-03-21 13:15;211,2
2019-03-21 13:30;209,65
2019-03-21 13:45;202,6
2019-03-21 14:00;213,5
2019-03-21 14:15;204,25
2019-03-21 14:30;208,2
2019-03-21 14:45;198,65
2019-03-21 15:00;199,4
2019-03-21 15:15;197,25
2019-03-21 15:30;206,7
2019-03-21 15:45;200,05
2019-03-21 16:00;193,25
2019-03-21 16:15;193,45
2019-03-21 16:30;173,6
2019-03-21 16:45;176,1
2019-03-21 17:00;173,15
2019-03-21 17:15;172,65
2019-03-21 17:30;174,7
2019-03-21 17:45;166,05
2019-03-21 18:00;166,95
2019-03-21 18:15;159,4
2019-03-21 18:30;160,35
2019-03-21 18:45;152,1
2019-03-21 19:00;158,8
2019-03-21 19:15;157,4
2019-03-21 19:30;160,2
2019-03-21 19:45;143,05
2019-03-21 20:00;138,7
2019-03-21 20:15;132
2019-03-21 20:30;130
2019-03-21 20:45;127,95
2019-03-21 21:00;126,65
2019-03-21 21:15;120,5
2019-03-21 21:30;118,15
2019-03-21 21:45;114,9
2019-03-21 22:00;110,75
2019-03-21 22:15;109,85
2019-03-21 22:30;106,45
2019-03-21 22:45;105,45
2019-03-21 23:00;115
2019-03-21 23:15;110,8
2019-03-21 23:30;107,85
2019-03-21 23:45;108,4
2019-03-22 00:00;103,45
2019-03-22 00:15;103,1
2019-03-22 00:30;104,2
2019-03-22 00:45;104,5
2019-03-22 01:00;105,9
2019-03-22 01:15;110
2019-03-22 01:30;109,3
2019-03-22 01:45;108,9
2019-03-22 02:00;109,45
2019-03-22 02:15;111,25
2019-03-22 02:30;109,45
2019-03-22 02:45;105,05
2019-03-22 03:00;101,4
2019-03-22 03:15;102
2019-03-22 03:30;101,65
2019-03-22 03:45;101,95
2019-03-22 04:00;99,5
2019-03-22 04:15;99,05
2019-03-22 04:30;99
2019-03-22 04:45;99
2019-03-22 05:00;99,8
2019-03-22 05:15;98,75
2019-03-22 05:30;98,5
2019-03-22 05:45;97,3
2019-03-22 06:00;97,95
2019-03-22 06:15;98,2
2019-03-22 06:30;93,45
2019-03-22 06:45;93,2
2019-03-22 07:00;95,5
2019-03-22 07:15;99,5
2019-03-22 07:30;152,8
2019-03-22 07:45;107,5
2019-03-22 08:00;118
2019-03-22 08:15;115,15
2019-03-22 08:30;133,4
2019-03-22 08:45;126,65
2019-03-22 09:00;131,8
2019-03-22 09:15;146,5
2019-03-22 09:30;153,55
2019-03-22 09:45;158,35
2019-03-22 10:00;159,8
2019-03-22 10:15;170,6
2019-03-22 10:30;178
2019-03-22 10:45;172,65
2019-03-22 11:00;182,45
2019-03-22 11:15;178,75
2019-03-22 11:30;184
2019-03-22 11:45;182,25
2019-03-22 12:00;192,2
2019-03-22 12:15;36,65
2019-03-22 12:30;0
2019-03-22 12:45;0
2019-03-22 13:00;0
2019-03-22 13:15;0
2019-03-22 13:30;170,85
2019-03-22 13:45;174,1
2019-03-22 14:00;172,5
2019-03-22 14:15;171,95
2019-03-22 14:30;167,85
2019-03-22 14:45;171,4
2019-03-22 15:00;170,35
2019-03-22 15:15;163,8
2019-03-22 15:30;161,35
2019-03-22 15:45;154,9
2019-03-22 16:00;155,1
2019-03-22 16:15;144,5
2019-03-22 16:30;141,8
2019-03-22 16:45;132,9
2019-03-22 17:00;131,2
2019-03-22 17:15;133,35
2019-03-22 17:30;125,55
2019-03-22 17:45;129,4
2019-03-22 18:00;131,1
2019-03-22 18:15;125,5
2019-03-22 18:30;122,8
2019-03-22 18:45;121,35
2019-03-22 19:00;123,85
2019-03-22 19:15;119,65
2019-03-22 19:30;123,75
2019-03-22 19:45;115,05
2019-03-22 20:00;114,55
2019-03-22 20:15;110,4
2019-03-22 20:30;109,1
2019-03-22 20:45;110,8
2019-03-22 21:00;105,6
2019-03-22 21:15;100
2019-03-22 21:30;97,65
2019-03-22 21:45;96,5
2019-03-22 22:00;93,5
2019-03-22 22:15;91,4
2019-03-22 22:30;92,75
2019-03-22 22:45;92,35
2019-03-22 23:00;95,05
2019-03-22 23:15;90,2
2019-03-22 23:30;92,75
2019-03-22 23:45;91,95
2019-03-23 00:00;83,7
2019-03-23 00:15;83,05
2019-03-23 00:30;84,05
2019-03-23 00:45;83,05
2019-03-23 01:00;81,7
2019-03-23 01:15;80
2019-03-23 01:30;80,55
2019-03-23 01:45;82,95
2019-03-23 02:00;79,85
2019-03-23 02:15;80,25
2019-03-23 02:30;80,85
2019-03-23 02:45;81,15
2019-03-23 03:00;80,9
2019-03-23 03:15;82,2
2019-03-23 03:30;80,3
2019-03-23 03:45;80,35
2019-03-23 04:00;79,6
2019-03-23 04:15;78
2019-03-23 04:30;78,2
2019-03-23 04:45;80,2
2019-03-23 05:00;79,45
2019-03-23 05:15;77,1
2019-03-23 05:30;77,55
2019-03-23 05:45;78,55
2019-03-23 06:00;81,15
2019-03-23 06:15;78,85
2019-03-23 06:30;75,5
2019-03-23 06:45;75,1
2019-03-23 07:00;77,6
2019-03-23 07:15;76,45
2019-03-23 07:30;75,1
2019-03-23 07:45;74,65
2019-03-23 08:00;76,55
2019-03-23 08:15;75,95
2019-03-23 08:30;74,15
2019-03-23 08:45;76,3
2019-03-23 09:00;81,55
2019-03-23 09:15;80,8
2019-03-23 09:30;83,05
2019-03-23 09:45;79
2019-03-23 10:00;77,75
2019-03-23 10:15;81,45
2019-03-23 10:30;83,5
2019-03-23 10:45;78,75
2019-03-23 11:00;83
2019-03-23 11:15;83,65
2019-03-23 11:30;82,45
2019-03-23 11:45;88,5
2019-03-23 12:00;86,5
2019-03-23 12:15;83,85
2019-03-23 12:30;85,6
2019-03-23 12:45;84,5
2019-03-23 13:00;82
2019-03-23 13:15;80,3
2019-03-23 13:30;87,1
2019-03-23 13:45;84,5
2019-03-23 14:00;81,65
2019-03-23 14:15;84,95
2019-03-23 14:30;86,3
2019-03-23 14:45;88,5
2019-03-23 15:00;91,75
2019-03-23 15:15;91,15
2019-03-23 15:30;87,95
2019-03-23 15:45;90,05
2019-03-23 16:00;88,7
2019-03-23 16:15;85,75
2019-03-23 16:30;86,15
2019-03-23 16:45;87,25
2019-03-23 17:00;90,7
2019-03-23 17:15;88,9
2019-03-23 17:30;86,7
2019-03-23 17:45;89,1
2019-03-23 18:00;88,5
2019-03-23 18:15;88,7
2019-03-23 18:30;89,55
2019-03-23 18:45;103,85
2019-03-23 19:00;101,35
2019-03-23 19:15;102,35
2019-03-23 19:30;96,75
2019-03-23 19:45;97,25
2019-03-23 20:00;97,3
2019-03-23 20:15;97
2019-03-23 20:30;96,45
2019-03-23 20:45;97,2
2019-03-23 21:00;98,1
2019-03-23 21:15;92,8
2019-03-23 21:30;94,9
2019-03-23 21:45;88,6
2019-03-23 22:00;86,5
2019-03-23 22:15;85,15
2019-03-23 22:30;82,15
2019-03-23 22:45;81,4
2019-03-23 23:00;86,6
2019-03-23 23:15;87,05
2019-03-23 23:30;88,5
2019-03-23 23:45;89,3
2019-03-24 00:00;78,45
2019-03-24 00:15;79,2
2019-03-24 00:30;80,75
2019-03-24 00:45;81,05
2019-03-24 01:00;79,3
2019-03-24 01:15;79,6
2019-03-24 01:30;80,05
2019-03-24 01:45;80,8
2019-03-24 02:00;82,6
2019-03-24 02:15;82,05
2019-03-24 02:30;81,6
2019-03-24 02:45;81,3
2019-03-24 03:00;81,8
2019-03-24 03:15;82,4
2019-03-24 03:30;80,3
2019-03-24 03:45;78,95
2019-03-24 04:00;80
2019-03-24 04:15;79,45
2019-03-24 04:30;80,6
2019-03-24 04:45;78,45
2019-03-24 05:00;79,65
2019-03-24 05:15;78,5
2019-03-24 05:30;78,05
2019-03-24 05:45;78,45
2019-03-24 06:00;78,3
2019-03-24 06:15;77,5
2019-03-24 06:30;73,3
2019-03-24 06:45;71,75
2019-03-24 07:00;72,35
2019-03-24 07:15;72,05
2019-03-24 07:30;71,6
2019-03-24 07:45;70,55
2019-03-24 08:00;69,9
2019-03-24 08:15;72,65
2019-03-24 08:30;74,15
2019-03-24 08:45;74,2
2019-03-24 09:00;77,4
2019-03-24 09:15;75,3
2019-03-24 09:30;77,4
2019-03-24 09:45;75,85
2019-03-24 10:00;76,55
2019-03-24 10:15;73
2019-03-24 10:30;72,15
2019-03-24 10:45;74,95
2019-03-24 11:00;74,95
2019-03-24 11:15;77,65
2019-03-24 11:30;79,8
2019-03-24 11:45;81,35
2019-03-24 12:00;78,45
2019-03-24 12:15;77,95
2019-03-24 12:30;77,35
2019-03-24 12:45;80,25
2019-03-24 13:00;81,85
2019-03-24 13:15;77,5
2019-03-24 13:30;79,1
2019-03-24 13:45;78,55
2019-03-24 14:00;76,6
2019-03-24 14:15;80,8
2019-03-24 14:30;76,4
2019-03-24 14:45;77,35
2019-03-24 15:00;74,9
2019-03-24 15:15;79,45
2019-03-24 15:30;76,9
2019-03-24 15:45;73,65
2019-03-24 16:00;76,9
2019-03-24 16:15;75
2019-03-24 16:30;70,5
2019-03-24 16:45;73,25
2019-03-24 17:00;82,6
2019-03-24 17:15;84,25
2019-03-24 17:30;82,7
2019-03-24 17:45;83,9
2019-03-24 18:00;83,4
2019-03-24 18:15;83,55
2019-03-24 18:30;87,4
2019-03-24 18:45;89,1
2019-03-24 19:00;89,3
2019-03-24 19:15;92,75
2019-03-24 19:30;92,6
2019-03-24 19:45;94,9
2019-03-24 20:00;91,75
2019-03-24 20:15;87,95
2019-03-24 20:30;92,15
2019-03-24 20:45;90,85
2019-03-24 21:00;90
2019-03-24 21:15;91,65
2019-03-24 21:30;86,8
2019-03-24 21:45;86,7
2019-03-24 22:00;83,65
2019-03-24 22:15;83,85
2019-03-24 22:30;82,9
2019-03-24 22:45;79,9
2019-03-24 23:00;86,7
2019-03-24 23:15;81,25
2019-03-24 23:30;85,75
2019-03-24 23:45;87,55

